Tracking 29892 objects as of 21-Nov-2024
HD Live streaming from Space Station
objects crossing your sky now

STARLINK-5762

Track STARLINK-5762 now!
10-day predictions
STARLINK-5762 is classified as:


NORAD ID: 55590
Int'l Code: 2023-020X
Perigee: 564.5 km
Apogee: 567.9 km
Inclination: 43.0 °
Period: 95.8 minutes
Semi major axis: 6937 km
RCS: Unknown
Launch date: February 12, 2023
Source: United States (US)
Launch site: AIR FORCE EASTERN TEST RANGE (AFETR)
Your satellite tracking list
Your tracking list is empty




NASA's NSSDC Master Catalog

Two Line Element Set (TLE):
1 55590U 23020X   24325.70966770 -.00001693  00000-0 -11026-3 0  9993
2 55590  43.0095  59.8328 0002473 261.5775  98.4787 15.02535760 97622
Source of the keplerian elements: AFSPC